Theta_e
318 317 315 313 312 311 310 310 309 308 307 306 306 307 307 308 309 310 311 311 311 313 315 317 316 316 311 304 301 311 322 317 311 310 307 307 305 305 300 301 302 299 300 302 302 302 302
317 316 315 314 312 311 310 309 309 307 306 306 306 306 307 308 309 310 311 312 311 313 316 316 316 318 308 297 309 312 311 310 310 309 307 308 307 306 302 301 300 301 301 300 301 301 301
316 315 314 313 312 310 310 309 308 307 306 306 306 306 307 308 309 309 310 312 312 314 315 314 314 310 304 299 310 313 310 308 309 309 307 308 308 305 304 299 303 301 297 298 299 299 298
316 315 314 313 311 311 310 309 307 307 306 306 306 306 306 307 308 309 310 311 312 315 315 312 315 310 299 307 311 309 310 308 310 310 309 310 310 307 304 304 300 298 298 294 296 297 297
315 314 314 312 311 311 310 308 307 306 306 306 306 306 307 308 309 310 310 311 312 314 312 314 312 308 298 310 304 308 309 305 306 308 308 308 308 304 303 298 296 297 294 294 293 297 296
315 314 313 311 310 310 310 308 307 306 306 305 305 305 307 308 310 309 308 310 312 312 309 310 309 305 302 298 304 305 309 307 304 304 304 304 304 299 300 298 292 292 291 293 293 295 297
315 314 313 311 310 310 309 308 306 306 306 306 305 306 307 309 308 307 306 309 305 304 307 301 300 300 300 304 307 304 306 305 305 304 298 302 298 293 294 296 296 295 294 291 292 294 295
314 313 312 312 310 310 308 307 306 305 306 305 304 306 307 308 308 307 312 306 308 307 297 303 302 301 303 303 299 302 307 300 301 296 299 296 291 294 295 295 294 294 293 291 292 294 296
313 312 312 312 310 310 308 307 306 305 305 304 305 306 307 306 307 308 311 308 312 312 299 298 300 299 301 303 298 298 303 302 299 296 295 293 290 293 294 293 292 291 290 289 290 292 294
312 311 311 312 311 309 308 307 306 305 304 304 305 306 306 308 305 312 308 310 314 315 299 293 296 297 300 301 295 302 302 299 297 293 293 291 292 291 291 289 292 289 289 289 289 290 290
311 311 311 311 310 309 308 308 305 305 304 305 305 305 306 303 313 306 310 314 316 315 288 294 295 303 300 298 298 297 303 301 295 293 296 288 290 289 289 287 291 288 290 290 290 292 291
311 310 310 310 309 308 308 308 306 305 304 304 305 305 307 309 316 313 315 316 316 298 287 291 295 295 295 296 295 297 297 301 299 294 294 291 293 291 289 290 290 291 291 291 292 291 287
310 310 310 310 309 308 308 307 306 304 304 305 307 307 308 313 308 316 318 312 296 287 295 289 292 295 295 293 293 295 294 293 294 289 289 290 289 291 292 290 292 293 290 289 285 286 287
310 309 309 310 308 308 308 307 306 305 306 308 307 308 310 313 315 317 313 302 287 291 292 295 294 294 292 294 292 292 292 291 292 292 291 288 285 289 291 289 288 288 289 289 281 284 286
310 309 309 309 308 308 307 306 305 305 306 306 308 312 311 313 316 316 304 290 291 293 294 292 293 291 291 292 293 293 292 291 291 292 291 288 283 289 290 291 290 288 289 289 284 285 282
310 309 309 308 308 307 306 305 305 305 306 306 308 307 307 313 315 312 302 292 293 296 296 296 290 293 289 290 291 293 291 292 289 291 295 289 283 288 288 290 290 291 291 286 287 278 278
309 309 308 307 307 306 305 305 305 305 306 307 307 300 308 313 313 304 291 294 294 297 298 295 292 291 293 291 293 292 291 291 292 291 294 292 290 286 287 287 286 287 287 286 287 286 282
308 308 307 307 306 306 305 305 305 305 305 301 305 296 309 311 300 302 298 295 295 294 296 294 295 294 294 293 291 290 289 292 294 294 290 292 291 285 286 288 290 288 287 287 284 281 283
307 307 306 306 305 305 305 305 305 305 305 306 301 298 309 308 288 296 296 294 295 294 295 294 293 295 296 293 289 292 292 293 294 293 291 291 288 283 282 286 287 284 287 285 285 284 281
307 306 306 305 305 305 305 305 305 304 305 306 300 288 299 302 301 297 293 293 291 296 295 296 295 296 295 292 293 290 289 291 293 293 292 292 288 287 285 283 288 282 284 284 285 281 283
306 306 305 305 305 305 305 305 304 304 304 305 302 293 298 287 293 297 296 294 291 290 295 296 293 294 293 290 290 289 291 290 292 292 292 292 285 285 286 286 286 285 284 284 280 283 280
306 305 305 305 304 304 305 305 303 304 303 306 292 296 298 297 296 296 295 294 293 293 294 293 293 294 295 291 291 290 291 291 290 292 291 292 285 285 282 286 285 283 286 287 286 285 285
305 305 305 305 304 304 305 304 303 303 302 303 304 303 302 295 295 296 295 294 294 295 294 297 296 295 293 293 296 297 297 296 295 292 290 289 287 282 281 283 283 281 286 287 287 289 288
305 305 305 304 304 304 304 303 303 303 302 306 304 303 298 292 294 293 294 295 295 295 293 295 297 295 296 300 299 297 296 294 294 293 294 289 286 285 281 282 276 287 290 289 288 289 291
305 305 304 304 304 304 303 303 303 303 302 306 305 304 302 293 295 294 294 295 296 295 295 295 295 299 300 297 291 285 286 286 287 290 291 292 288 283 280 281 285 287 289 287 286 286 292
304 304 304 304 304 303 303 302 303 303 302 305 303 307 305 301 295 296 295 296 293 293 292 292 298 301 299 295 289 285 282 286 281 284 290 290 290 285 282 277 276 286 290 292 291 283 292
304 304 304 304 303 303 302 302 302 303 303 304 301 305 303 294 298 299 296 295 298 296 293 292 293 293 298 290 288 286 285 287 282 281 281 284 284 281 282 280 284 291 291 292 281 286 294
303 303 303 303 303 303 302 302 303 303 302 304 300 304 303 298 296 299 299 297 298 298 293 294 293 292 292 286 290 288 287 287 286 288 285 283 282 282 283 280 277 292 289 284 291 294 294
303 303 303 302 302 302 302 303 303 303 302 304 298 303 306 297 296 301 301 301 301 301 300 297 295 294 295 293 293 293 288 290 287 284 291 284 288 287 287 287 293 294 292 295 295 293 294
Wind_Speed
21 20 19 18 16 15 14 12 9 7 5 3 2 3 4 6 7 9 11 12 12 12 12 8 8 10 4 13 12 12 13 14 11 12 9 11 9 9 13 20 22 19 19 19 16 15 14
21 20 18 18 17 15 15 12 10 7 5 3 2 2 4 6 8 9 12 12 11 12 11 6 10 11 6 18 8 10 11 14 17 13 14 10 19 17 12 9 11 16 16 13 12 12 13
22 20 19 18 17 16 15 12 10 7 5 3 2 2 4 6 7 8 11 13 11 10 10 7 9 12 24 12 7 10 10 15 13 14 15 9 4 2 16 21 19 19 19 15 9 6 4
24 21 20 18 17 15 14 12 10 8 6 3 2 2 3 5 6 8 11 13 11 11 8 10 8 11 10 7 8 9 7 11 14 12 11 11 14 14 7 15 9 8 8 5 7 1 2
24 23 21 19 17 16 15 13 11 8 6 3 2 2 3 4 7 7 9 12 12 10 7 10 4 8 9 3 12 9 10 10 8 10 10 7 8 13 15 11 9 7 5 11 9 6 1
26 24 22 21 18 17 16 14 11 9 6 4 2 1 3 4 5 5 7 8 7 9 6 3 3 9 7 8 9 8 8 6 5 3 7 5 7 9 5 8 2 8 8 6 8 7 7
28 26 23 21 20 19 17 14 12 9 7 5 2 1 2 4 5 5 1 4 6 7 15 15 13 22 16 14 10 13 6 5 4 8 16 18 13 13 11 11 9 7 8 10 8 5 1
29 27 24 23 22 21 18 15 12 10 8 6 3 2 1 2 3 5 5 11 10 16 14 16 17 15 9 3 11 14 2 1 3 13 17 15 16 9 7 8 8 7 6 8 6 6 6
30 28 26 23 23 22 19 16 12 10 7 4 1 1 1 2 3 3 7 2 4 7 6 7 7 10 12 11 10 11 8 13 15 14 14 13 8 5 6 7 10 11 8 4 7 3 1
30 28 27 24 23 21 19 16 13 10 7 4 2 1 4 3 4 6 6 4 3 6 2 6 4 5 4 5 8 8 3 4 3 12 12 12 5 5 9 9 9 3 5 3 3 7 0
29 28 27 25 23 20 17 15 13 10 7 5 4 1 5 8 8 11 5 4 4 4 2 5 6 3 6 2 12 8 6 12 8 7 3 7 9 5 7 6 7 7 3 4 4 6 4
30 28 27 25 23 19 17 15 13 11 8 6 5 4 3 4 1 7 6 2 4 3 4 6 7 11 9 7 6 5 6 8 9 19 19 11 6 9 5 1 4 2 5 6 6 4 7
30 28 27 25 23 20 18 16 13 11 9 7 7 4 6 2 5 6 5 4 2 3 8 9 11 11 10 10 6 5 6 5 1 6 6 9 7 5 6 5 2 5 5 3 4 5 2
31 29 27 25 23 21 19 16 13 11 10 11 9 4 6 5 5 6 4 4 3 5 7 7 16 15 10 12 8 5 6 7 4 2 7 6 6 6 5 7 5 4 5 2 5 3 4
32 29 27 25 24 22 19 16 14 12 12 11 11 6 5 4 4 4 7 3 6 8 10 14 15 13 11 9 6 6 2 6 4 2 2 4 5 5 5 6 5 2 1 4 4 1 5
32 30 28 26 24 22 19 17 15 14 14 15 7 7 5 2 3 6 2 4 4 2 11 18 6 9 10 13 10 9 7 3 6 2 2 2 6 4 5 4 5 6 3 3 3 1 4
32 30 28 26 24 22 19 17 16 14 14 10 8 5 4 4 3 5 3 4 4 7 11 10 3 7 7 15 8 10 9 6 4 6 2 5 1 7 4 5 1 5 4 2 2 4 4
33 30 28 26 24 22 20 17 16 15 12 3 4 4 4 4 6 3 4 6 5 10 4 2 3 3 10 12 8 6 7 3 8 9 7 4 1 5 3 4 3 3 1 6 3 3 6
33 31 28 26 24 22 20 18 16 16 19 7 6 5 4 4 6 6 8 8 6 13 11 7 5 3 5 9 6 8 11 6 9 6 6 8 5 4 7 6 3 3 2 3 2 4 10
34 31 28 26 25 23 20 18 16 17 14 4 5 5 4 4 2 13 14 10 8 6 8 4 9 8 9 9 4 10 11 6 7 5 5 2 5 4 4 2 6 5 8 7 5 5 6
33 30 29 27 26 23 21 18 15 14 9 4 3 4 8 7 5 15 14 13 15 8 7 9 6 7 10 7 7 7 12 12 8 10 6 2 2 0 5 10 10 9 11 14 15 13 8
33 31 29 27 25 22 20 17 15 12 7 3 5 4 4 8 14 16 11 13 16 11 13 15 8 11 10 8 5 11 12 10 7 10 7 5 0 3 5 8 10 14 17 17 20 20 23
33 31 29 26 24 22 20 18 15 14 10 2 2 1 4 7 14 11 11 13 16 12 1 9 9 12 9 8 5 7 7 8 6 10 10 7 3 2 4 4 9 12 16 19 18 18 17
33 31 29 27 25 22 20 18 16 15 7 2 3 4 4 5 11 13 13 13 15 14 8 9 12 9 11 14 15 13 9 6 7 6 7 6 7 3 3 4 5 3 1 4 6 10 14
32 30 29 27 24 22 19 17 15 12 6 3 2 2 3 4 10 13 14 12 12 9 13 15 8 10 16 13 6 4 3 2 4 6 7 6 7 3 3 6 13 14 2 8 5 11 9
31 30 27 26 24 21 19 17 15 12 7 1 4 3 4 4 6 11 14 19 15 14 11 7 13 10 6 3 3 5 5 4 5 6 6 8 9 6 4 4 5 5 4 3 5 10 7
31 29 27 25 23 21 19 17 15 12 6 1 4 4 4 4 4 5 10 14 9 10 8 11 9 6 3 3 3 4 4 5 8 8 7 9 6 11 9 6 8 7 1 1 6 5 8
31 29 26 24 23 20 18 16 15 12 7 0 5 4 2 4 6 6 2 9 9 9 6 13 7 1 1 3 4 3 4 6 3 6 11 10 9 5 8 5 7 7 2 6 10 10 13
30 28 26 24 22 20 17 16 15 12 7 3 4 4 8 6 6 11 13 12 10 8 11 12 3 11 6 3 3 2 2 3 5 3 11 8 7 3 9 5 7 3 7 11 11 14 16
Wind_Direction
166 171 170 164 190 193 187 180 185 176 166 189 250 324 3 18 25 10 329 316 312 301 284 283 277 279 281 69 33 8 313 358 30 39 30 51 53 54 85 98 93 91 94 89 89 84 83
172 167 170 171 183 191 193 180 182 187 178 197 246 319 353 11 22 1 325 312 302 296 285 300 302 249 83 76 338 27 19 27 24 54 54 77 74 76 73 62 94 112 95 97 98 100 91
170 170 171 169 179 194 193 182 183 187 193 196 249 319 351 10 10 352 325 312 304 296 295 327 332 93 66 57 40 358 37 29 40 36 64 95 116 347 110 94 115 123 105 82 53 62 72
167 168 170 170 178 195 192 184 185 186 192 201 251 317 350 0 356 348 321 308 304 297 313 296 282 82 71 28 14 29 15 57 48 53 63 73 77 94 79 122 147 166 194 162 59 204 24
168 168 174 168 180 192 188 187 185 184 186 209 260 341 347 357 350 348 326 308 293 274 247 266 279 106 81 145 34 37 22 17 27 47 83 80 96 106 147 150 159 199 96 100 108 30 139
167 169 174 173 181 190 190 187 184 184 185 208 247 346 353 4 348 352 316 288 293 249 230 214 104 108 57 56 39 37 22 9 8 143 97 115 145 138 110 246 35 123 111 69 60 26 87
168 169 172 173 181 191 191 186 182 185 186 203 203 87 5 31 52 35 224 200 189 92 52 70 69 93 112 99 53 39 43 38 92 62 75 42 83 65 58 42 57 70 104 96 80 36 97
167 170 171 176 180 192 190 186 183 187 190 199 199 131 39 68 66 50 279 254 23 131 95 92 91 84 75 124 69 30 93 82 77 99 112 88 71 64 60 74 76 77 111 87 111 53 270
168 168 172 176 185 188 188 184 182 186 198 201 167 80 128 181 119 170 218 325 324 341 111 68 64 77 68 79 52 48 18 36 78 87 60 74 86 54 70 87 82 49 35 36 357 51 75
170 170 171 174 186 184 185 180 182 181 194 182 150 170 214 189 126 172 207 158 4 353 138 127 153 94 131 129 68 51 59 354 57 95 84 66 78 94 86 64 316 107 16 301 266 252 274
173 170 169 170 181 180 179 177 180 178 187 169 148 77 188 217 112 192 97 140 337 249 187 172 108 119 139 50 141 63 6 69 87 113 192 92 59 72 72 39 331 56 302 273 260 259 237
173 170 168 173 175 176 173 173 173 177 176 160 156 155 167 195 322 73 119 166 257 263 212 160 149 151 120 111 74 99 96 72 73 78 82 100 87 39 45 56 8 105 195 199 226 253 238
169 171 170 171 170 174 171 172 170 175 170 159 145 141 226 84 135 148 146 210 172 209 159 163 165 173 134 133 112 132 135 106 124 116 116 117 75 102 8 231 212 199 225 220 212 200 303
168 170 171 171 168 171 171 172 168 171 158 137 141 147 52 64 128 156 184 203 192 158 194 151 153 148 141 138 123 145 159 116 75 320 149 177 163 356 10 18 353 29 331 313 257 298 351
167 170 169 169 168 168 169 170 171 170 159 161 177 137 130 68 158 204 189 191 178 176 138 157 155 163 146 146 154 157 162 106 82 344 157 139 110 103 48 37 311 75 96 4 306 221 265
167 168 166 170 166 166 168 169 174 171 169 179 153 154 98 118 196 213 164 229 158 184 156 164 169 208 169 162 160 186 167 130 126 105 273 115 129 207 125 252 67 355 74 203 63 293 271
163 165 166 166 164 163 169 171 174 173 182 190 162 154 103 170 211 171 197 191 142 166 154 198 145 187 173 157 166 168 143 138 141 131 220 127 130 144 194 210 138 151 144 84 330 306 289
161 164 165 163 162 162 168 174 175 171 173 192 180 116 139 189 131 159 190 166 119 152 141 131 171 122 159 161 161 131 153 123 155 153 141 64 174 169 114 102 319 316 192 187 242 177 256
163 163 163 162 162 164 168 173 177 173 190 164 113 118 167 241 138 196 153 143 172 166 163 168 142 132 136 160 134 129 125 116 151 161 159 166 168 152 173 170 187 235 107 98 97 269 246
161 161 160 161 162 166 168 172 180 185 202 255 126 112 153 220 212 186 180 170 146 206 138 169 129 138 139 137 117 148 123 147 158 129 39 185 200 226 324 70 111 169 196 201 203 213 259
160 162 159 161 163 166 169 171 181 186 192 256 125 178 172 174 222 195 188 179 160 154 188 177 173 178 159 155 152 152 127 137 175 129 184 214 193 244 251 246 244 230 198 196 217 225 237
158 159 160 160 163 166 167 168 172 173 172 236 132 146 203 160 172 186 179 197 177 167 166 183 193 175 154 162 177 175 155 170 164 167 177 155 196 285 258 249 265 269 260 240 226 225 247
156 158 159 159 161 164 165 162 163 166 202 134 145 161 117 163 173 175 187 188 187 152 227 181 189 163 160 107 90 128 143 157 145 171 181 164 147 208 270 338 318 276 256 238 245 237 243
157 159 158 161 161 163 162 160 163 177 207 284 170 147 105 176 187 183 188 180 177 180 146 156 159 157 95 111 103 94 90 108 144 152 188 184 161 173 276 287 257 56 45 1 278 268 261
155 156 158 158 159 159 158 157 160 166 218 264 144 109 110 129 187 179 184 172 117 124 140 114 41 93 153 143 93 84 66 68 269 182 200 199 179 206 245 245 294 286 305 234 255 285 297
156 154 156 156 156 156 156 156 156 158 206 205 63 320 108 106 190 184 175 144 140 123 108 105 118 134 161 102 131 176 179 139 177 156 231 199 223 215 189 261 260 79 83 342 311 274 53
154 152 155 154 152 153 152 154 155 157 179 165 87 1 86 97 37 227 160 169 151 153 116 138 147 155 191 135 164 185 185 178 171 174 174 176 209 224 219 252 273 319 168 34 249 30 350
149 151 151 149 149 149 151 154 155 155 173 301 83 5 68 91 50 33 299 135 154 135 148 149 121 157 132 155 179 188 232 196 219 182 174 176 181 192 219 242 258 127 160 234 355 319 316
146 147 146 146 146 146 147 150 151 152 162 204 99 54 70 83 93 85 62 42 21 352 121 169 336 148 161 144 201 181 189 166 217 226 181 201 211 215 194 215 128 186 283 304 313 310 312